This is the latest recevied weather packets stored in our database for station/object DC1MPP-9. If no packets are shown the sender has not sent any weather packets the latest 10 day(s).
| Time | Temp. | Humidity | Pressure | Rain* | Wind** | Luminosity | Snow |
|---|---|---|---|---|---|---|---|
| 1787487645 | 24.44° C | 43% | 965 hPa | - | - | - | - |
| 1787487163 | 23.89° C | 45% | 965 hPa | - | - | - | - |
| 1787486922 | 23.89° C | 47% | 965 hPa | - | - | - | - |
| 1787486681 | 23.89° C | 48% | 965 hPa | - | - | - | - |
| 1787486199 | 24.44° C | 46% | 965 hPa | - | - | - | - |
| 1787485958 | 23.89° C | 50% | 965 hPa | - | - | - | - |
| 1787485717 | 23.89° C | 48% | 964 hPa | - | - | - | - |
| 1787485476 | 23.89° C | 45% | 965 hPa | - | - | - | - |
| 1787485234 | 23.89° C | 48% | 965 hPa | - | - | - | - |
| 1787484993 | 23.33° C | 49% | 965 hPa | - | - | - | - |
| 1787484752 | 23.89° C | 50% | 965 hPa | - | - | - | - |
| 1787484511 | 23.89° C | 48% | 965 hPa | - | - | - | - |
| 1787484270 | 24.44° C | 47% | 965 hPa | - | - | - | - |
| 1787483788 | 25° C | 45% | 965 hPa | - | - | - | - |
| 1787483547 | 24.44° C | 49% | 965 hPa | - | - | - | - |
| 1787483306 | 23.89° C | 50% | 965 hPa | - | - | - | - |
| 1787482824 | 23.89° C | 52% | 965 hPa | - | - | - | - |
| 1787482583 | 23.89° C | 45% | 965 hPa | - | - | - | - |
| 1787482342 | 25° C | 46% | 965 hPa | - | - | - | - |
| 1787482101 | 25° C | 45% | 965 hPa | - | - | - | - |
| 1787481860 | 25.56° C | 47% | 965 hPa | - | - | - | - |
| 1787481619 | 25° C | 44% | 965 hPa | - | - | - | - |
| 1787481377 | 25.56° C | 46% | 965 hPa | - | - | - | - |
| 1787481136 | 25° C | 45% | 965 hPa | - | - | - | - |
| 1787480895 | 25° C | 46% | 965 hPa | - | - | - | - |
* Rain since midnight (hover to see other rain measurements)
** Current wind speed in m/s (hover to see current wind gust speed)